Simultaneous Nadir Overpasses (SNOs) Predictions

Prediction of SNOs between GOES-14 and NOAA-20 Satellite Orbit:

Table of predicted SNOs for the next 14.0 days since TLE Epoch: 9/3/2022
Index Date Time (GOES-14) GOES-14 Lat,Lon NOAA-20 Lat,Lon Distance(km) Time Diff (sec)
1 09/03/2022 08:32:33 0.41,-104.45 0.85,-106.44 226.53 80
2 09/04/2022 08:11:09 0.42,-104.43 -0.14,-101.91 287.26 80
3 09/05/2022 20:33:07 -0.40,-104.58 -0.98,-107.23 302.00 80
4 09/06/2022 20:17:03 -0.40,-104.58 0.02,-102.70 214.16 80
5 09/08/2022 08:38:51 0.39,-104.43 1.17,-107.97 403.60 80
6 09/09/2022 08:17:27 0.39,-104.41 0.18,-103.44 110.42 80
7 09/10/2022 20:39:24 -0.38,-104.52 -1.35,-108.75 482.57 80
8 09/11/2022 20:23:20 -0.38,-104.53 -0.30,-104.23 34.44 80
9 09/14/2022 08:26:24 0.38,-104.41 0.49,-104.97 63.49 80
10 09/15/2022 08:05:00 0.38,-104.40 -0.51,-100.44 450.93 80
11 09/16/2022 20:26:57 -0.37,-104.49 -0.66,-105.75 143.85 80
